Regional Weather Roundup
Issued by NWS Midland/Odessa, TX

Skip options and go directly to product.
Home | Oldest Version | Next Version | Current Version | All | Text Only | Save Text | Print | Product List | Glossary On

Skip product version selection by date and time.   
477
ASUS44 KMAF 310310
RWRMAF
MIDLAND AREA WEATHER ROUNDUP
NATIONAL WEATHER SERVICE MIDLAND TX
1000 PM CDT TUE AUG 30 2016

...IN SOUTHWEST TEXAS AND SOUTHEAST NEW MEXICO...

CITY           SKY/WX    TMP DP  RH WIND       PRES   REMARKS
ALPINE         PTCLDY    66  63  90 E3        30.25R
ANDREWS        CLOUDY    67  67 100 N8        30.15
ARTESIA        LGT RAIN  66  66 100 NW5       30.20R
BIG SPRING     CLOUDY    78  65  64 E9        30.14R
CARLSBAD       PTCLDY    69  65  86 N6        30.16R
DRYDEN           N/A     73  72  96 E8        30.07R
FORT STOCKTON  CLEAR     70  66  87 NW8       30.12R
GUAD PASS      CLOUDY    62  61  96 NE26      30.26R
HOBBS          MOCLDY    66  66 100 NE9       30.20R
MARFA          CLOUDY   N/A N/A N/A NE8       30.22R
MIDLAND AIRPK  CLOUDY    73  68  83 N8        30.14R
MIDLAND INTL   LGT RAIN  73  67  81 NE9       30.13R
ODESSA         MOCLDY    72  66  81 NE9       30.14R
PECOS          PTCLDY    70  68  93 N9        30.11R
PRESIDIO       FAIR      76  66  71 N3        30.06R
SEMINOLE       RAIN      67  66  96 CALM      30.19R
SNYDER           N/A     79  66  64 N12       30.13R
WINK           CLOUDY    71  68  90 N9        30.11R
$$
...OTHER STATIONS IN TEXAS...

CITY           SKY/WX    TMP DP  RH WIND       PRES   REMARKS
ABILENE        CLEAR     76  69  79 E7        30.09R
AMARILLO       PTCLDY    67  64  90 CALM      30.23R
AUSTIN         MOCLDY    81  71  71 NE7       29.97R
BROWNSVILLE    MOCLDY    82  76  81 NE14      29.86S
CORPUS CHRISTI MOCLDY    80  75  84 E5        29.92R
DALLAS FTW     MOCLDY    84  70  62 NE5       29.99R
DEL RIO        CLOUDY    76  72  87 CALM      30.01R
EL PASO        MOCLDY    72  63  73 E10       30.15R
HOUSTON INT    MOCLDY    79  74  84 CALM      29.93R
LUBBOCK        LGT RAIN  67  64  90 CALM      30.21R
SAN ANGELO     CLOUDY    79  68  69 CALM      30.07R
SAN ANTONIO    CLOUDY    79  71  76 E3        29.99R
WACO           PTCLDY    77  73  87 W6        29.99R
WICHITA FALLS  NOT AVBL
$$
...OTHER LOCATIONS IN NEW MEXICO...

CITY           SKY/WX    TMP DP  RH WIND       PRES   REMARKS
ALAMAGORDO     CLEAR     75  55  50 CALM      30.16R
ALBUQUERQUE    PTCLDY    70  55  59 E22       30.25R
CANNON AFB     CLOUDY    65  65 100 E7        30.25R
CLOVIS         CLOUDY    64  61  88 SE6       30.25R
HOLLOMAN AFB   CLOUDY    76  57  51 W5        30.14R
ROSWELL        LGT RAIN  68  64  87 NE7       30.21R
RUIDOSO          N/A     57  55  94 SE8       30.39R
SANTA FE       CLEAR     63  55  75 SE15      30.33R
TRUTH OR CONSE CLOUDY    76  52  43 NE9       30.19R
TUCUMCARI      CLOUDY    67  64  90 CALM      30.24R
$$

USA.gov is the U.S. government's official web portal to all federal, state and local government web resources and services.